Location: Caltech
(34.1382°N, 118.1253°W)
Time: 17:40:00
(UTC-08:00)

Iridium 12 - Visible Passes

Search period start: 19 February 2017 00:00
Search period end: 01 March 2017 00:00
Orbit: 776 x 779 km, 86.4° (Epoch: 19 February)

Date Brightness Start Highest point End Pass type
(mag) Time Alt. Az. Time Alt. Az. Time Alt. Az.
19 Feb 7.7 03:44:24 10° NNE 03:53:55 12° SSE 03:54:15 10° SSE visible
19 Feb 7.6 05:26:15 10° NW 05:34:33 - SW 05:26:15 10° NW visible
20 Feb 7.8 04:51:43 10° NNW 05:03:13 - SSW 04:51:47 10° NNW visible
